1486364400.62,44805,9.63,72644.0,-5.03,-34.19,-34.41,0,*56
1486364401.83,44806,9.56,72642.5,-5.01,-34.47,-34.77,0,*59
1486364403.06,44807,9.63,72648.3,-5.03,-34.41,-34.77,0,*5C
1486364404.3,44808,9.63,72648.8,-5.01,-34.47,-34.65,0,*54
1486364405.53,44809,9.63,72646.5,-5.01,-34.35,-34.59,0,*5F
1486364406.73,44810,9.63,72644.8,-5.01,-34.25,-34.59,0,*56
1486364407.96,44811,9.56,72640.8,-5.01,-34.25,-34.35,0,*5D
1486364409.19,44812,9.63,72644.5,-5.01,-34.35,-34.59,0,*55
1486364410.45,44813,9.63,72646.5,-4.97,-34.35,-34.59,0,*5A
1486364411.68,44814,9.63,72646.8,-5.01,-34.19,-34.59,0,*5D
1486364412.88,44815,9.63,72644.0,-5.01,-34.41,-34.77,0,*5D
1486364414.14,44816,9.56,72642.0,-4.97,-34.35,-34.71,0,*55
1486364415.37,44817,9.63,72640.3,-4.97,-34.41,-34.71,0,*57
1486364416.64,44818,9.63,72640.5,-4.97,-34.35,-34.71,0,*5B
1486364417.9,44819,9.63,72638.5,-4.97,-34.35,-34.59,0,*50
1486364419.16,44820,9.63,72638.0,-4.97,-34.35,-34.59,0,*5A
1486364420.41,44821,9.63,72638.3,-4.97,-34.19,-34.41,0,*5C
1486364421.69,44822,9.63,72636.0,-4.97,-34.01,-34.31,0,*51
1486364422.97,44823,9.63,72638.8,-4.97,-34.01,-34.19,0,*5A
1486364424.23,44824,9.63,72642.3,-4.95,-34.31,-34.53,0,*52
1486364425.52,44825,9.63,72642.3,-4.97,-34.31,-34.53,0,*51
1486364426.74,44826,9.63,72644.0,-4.95,-34.19,-34.41,0,*59
1486364428.03,44827,9.63,72640.3,-4.97,-34.31,-34.53,0,*53
1486364429.29,44828,9.63,72640.0,-4.95,-34.31,-34.53,0,*5E
1486364430.52,44829,9.63,72640.8,-4.95,-34.41,-34.53,0,*58
1486364431.74,44830,9.63,72642.8,-4.95,-34.31,-34.41,0,*54
1486364433.0,44831,9.63,72642.0,-4.95,-34.19,-34.53,0,*5C
1486364434.22,44832,9.63,72642.3,-4.95,-34.19,-34.41,0,*5C
1486364435.47,44833,9.63,72642.8,-4.95,-34.19,-34.35,0,*5E
1486364436.73,44834,9.63,72644.5,-4.93,-34.07,-34.31,0,*54
1486364437.96,44835,9.63,72644.3,-4.93,-34.07,-34.25,0,*50
1486364439.22,44836,9.63,72642.3,-4.95,-34.19,-34.53,0,*5B
1486364440.48,44837,9.63,72644.3,-4.93,-34.31,-34.47,0,*53
1486364441.77,44838,9.63,72646.0,-4.93,-34.31,-34.53,0,*59
1486364443.02,44839,9.63,72644.8,-4.93,-34.25,-34.35,0,*5D
1486364444.26,44840,9.63,72646.0,-4.91,-34.47,-34.65,0,*50
1486364445.56,44841,9.63,72646.3,-4.93,-34.53,-34.65,0,*56
1486364446.8,44842,9.63,72646.5,-4.91,-34.47,-34.65,0,*52
1486364448.09,44843,9.63,72646.8,-4.93,-34.35,-34.65,0,*54
1486364449.35,44844,9.63,72644.3,-4.91,-34.35,-34.53,0,*54
1486364450.61,44845,9.63,72646.0,-4.91,-34.31,-34.53,0,*51
1486364451.84,44846,9.63,72642.3,-4.91,-34.13,-34.35,0,*52
1486364453.05,44847,9.63,72644.5,-4.91,-34.25,-34.47,0,*53
1486364454.29,44848,9.63,72646.5,-4.91,-34.31,-34.47,0,*59
1486364455.53,44849,9.63,72646.3,-4.91,-34.35,-34.47,0,*5C
1486364456.78,44850,9.63,72644.0,-4.89,-34.31,-34.41,0,*5F
1486364457.98,44851,9.63,72644.3,-4.87,-34.25,-34.41,0,*55
1486364459.24,44852,9.63,72648.5,-4.89,-34.31,-34.47,0,*5B
1486364460.47,44853,9.63,72644.3,-4.87,-34.07,-34.19,0,*5A
1486364461.67,44854,9.63,72644.0,-4.87,-34.07,-34.25,0,*52
1486364462.93,44855,9.63,72646.8,-4.85,-34.13,-34.35,0,*55
1486364464.21,44856,9.63,72644.5,-4.85,-34.19,-34.35,0,*5C
1486364465.44,44857,9.63,72646.3,-4.87,-34.31,-34.41,0,*56
1486364466.69,44858,9.63,72646.0,-4.87,-34.01,-34.19,0,*57
1486364467.92,44859,9.63,72646.3,-4.87,-34.01,-34.07,0,*59
1486364469.18,44860,9.63,72644.3,-4.85,-33.95,-34.01,0,*5D
1486364470.42,44861,9.63,72646.8,-4.85,-33.83,-34.13,0,*58
1486364471.65,44862,9.63,72644.5,-4.83,-33.95,-34.01,0,*59
1486364472.88,44863,9.63,72644.3,-4.83,-33.95,-34.01,0,*58
1486364474.1,44864,9.63,72646.8,-4.83,-33.95,-34.19,0,*56
1486364475.33,44865,9.63,72646.8,-4.83,-33.95,-34.19,0,*57
1486364476.53,44866,9.63,72646.0,-4.83,-33.95,-34.13,0,*5E
1486364477.74,44867,9.63,72646.0,-4.83,-33.95,-34.13,0,*5F
1486364478.99,44868,9.63,72648.5,-4.81,-33.89,-34.13,0,*5F
1486364480.24,44869,9.63,72644.5,-4.81,-33.89,-34.07,0,*5B
1486364481.45,44870,9.63,72644.0,-4.79,-34.07,-34.13,0,*50
1486364482.7,44871,9.63,72646.3,-4.81,-34.07,-34.31,0,*56
1486364483.91,44872,9.63,72644.3,-4.79,-34.47,-34.47,0,*57
1486364485.16,44873,9.63,72636.5,-4.79,-34.47,-34.65,0,*56
1486364486.39,44874,9.63,72640.3,-4.79,-34.19,-34.47,0,*5A
1486364487.61,44875,9.63,72644.0,-4.79,-34.13,-34.35,0,*54
1486364488.85,44876,9.63,72640.0,-4.79,-34.19,-34.47,0,*58
1486364490.08,44877,9.63,72646.8,-4.79,-34.47,-34.53,0,*57
1486364491.31,44878,9.63,72644.0,-4.79,-34.83,-34.89,0,*57
1486364492.51,44879,9.63,72644.0,-4.79,-34.89,-34.89,0,*5C
1486364493.72,44880,9.63,72642.8,-4.79,-34.89,-35.01,0,*5B
1486364494.98,44881,9.63,72644.0,-4.77,-34.83,-35.01,0,*5E
1486364496.25,44882,9.63,72640.5,-4.77,-34.83,-35.17,0,*5A
1486364497.51,44883,9.63,72642.8,-4.77,-34.95,-35.13,0,*58
1486364498.77,44884,9.63,72640.0,-4.81,-34.47,-34.53,0,*5C
1486364500.05,44885,9.63,72642.8,-4.81,-34.31,-34.35,0,*5C
1486364501.29,44886,9.63,72642.3,-4.79,-34.35,-34.47,0,*59
1486364502.52,44887,9.63,72642.0,-4.79,-34.35,-34.47,0,*58
1486364503.77,44888,9.63,72640.3,-4.79,-34.31,-34.35,0,*56
1486364505.02,44889,9.63,72640.8,-4.79,-34.19,-34.35,0,*5D
1486364506.24,44890,9.63,72640.8,-4.73,-33.95,-34.25,0,*5D
1486364507.47,44891,9.63,72642.5,-4.77,-34.13,-34.25,0,*51
1486364508.72,44892,9.63,72642.3,-4.73,-34.07,-34.19,0,*5C
1486364509.97,44893,9.63,72642.5,-4.73,-34.01,-34.25,0,*54
1486364511.22,44894,9.63,72640.0,-4.77,-34.25,-34.31,0,*54
1486364512.47,44895,9.63,72642.8,-4.73,-34.19,-34.25,0,*5B
1486364513.75,44896,9.63,72642.8,-4.73,-34.19,-34.19,0,*57
1486364514.99,44897,9.63,72640.3,-4.73,-34.19,-34.25,0,*59
1486364516.24,44898,9.63,72640.5,-4.69,-33.95,-34.19,0,*51
1486364517.46,44899,9.63,72640.8,-4.71,-34.07,-34.19,0,*55
1486364518.69,44900,9.63,72644.3,-4.69,-33.95,-34.13,0,*5B
1486364519.91,44901,9.63,72646.0,-4.71,-34.01,-34.07,0,*5C
1486364521.16,44902,9.63,72642.5,-4.69,-34.13,-34.19,0,*5A
1486364522.41,44903,9.63,72646.0,-4.69,-34.13,-34.19,0,*5B
1486364523.66,44904,9.63,72646.0,-4.69,-34.01,-34.13,0,*55
1486364524.92,44905,9.63,72646.3,-4.69,-34.01,-34.13,0,*54
1486364526.19,44906,9.63,72644.0,-4.69,-34.19,-34.31,0,*5E
1486364527.45,44907,9.63,72646.8,-4.69,-34.35,-34.47,0,*50
1486364528.74,44908,9.63,72646.3,-4.67,-34.65,-34.65,0,*54
1486364530.03,44909,9.63,72640.3,-4.67,-34.65,-34.65,0,*55
1486364531.29,44910,9.63,72640.5,-4.67,-34.65,-34.71,0,*58
1486364532.59,44911,9.63,72638.3,-4.67,-34.65,-34.65,0,*5C
1486364533.8,44912,9.63,72646.5,-4.65,-34.47,-34.47,0,*5D
1486364535.04,44913,9.63,72642.0,-4.67,-34.71,-34.89,0,*59
1486364536.3,44914,9.63,72640.8,-4.67,-34.71,-34.83,0,*54
1486364537.54,44915,9.63,72640.5,-4.67,-35.01,-35.13,0,*5B
1486364538.77,44916,9.63,72644.5,-4.65,-35.01,-35.07,0,*5F
1486364540.04,44917,9.63,72644.3,-4.67,-35.07,-35.29,0,*56
1486364541.27,44918,9.63,72640.5,-4.67,-35.13,-35.29,0,*5C
1486364542.55,44919,9.63,72640.8,-4.67,-35.07,-35.23,0,*52
1486364543.79,44920,9.63,72640.8,-4.67,-35.13,-35.29,0,*57
1486364545.03,44921,9.63,72640.5,-4.67,-35.01,-35.13,0,*5C
1486364546.26,44922,9.63,72640.0,-4.69,-34.89,-35.01,0,*53
1486364547.51,44923,9.63,72640.8,-4.69,-34.71,-34.83,0,*5E
1486364548.81,44924,9.63,72642.5,-4.67,-34.65,-34.65,0,*5A
1486364550.09,44925,9.63,72642.5,-4.67,-34.53,-34.53,0,*5B
1486364551.39,44926,9.63,72642.3,-4.67,-34.65,-34.65,0,*58
1486364552.65,44927,9.63,72644.5,-4.67,-34.71,-34.65,0,*5C
1486364553.91,44928,9.63,72646.0,-4.67,-34.71,-34.83,0,*5B
1486364555.2,44929,9.63,72642.8,-4.67,-34.83,-34.83,0,*57
1486364556.45,44930,9.63,72640.5,-4.67,-34.83,-34.89,0,*55
1486364557.71,44931,9.63,72640.3,-4.67,-34.83,-34.89,0,*54
1486364558.95,44932,9.63,72642.5,-4.65,-34.65,-34.59,0,*50
1486364560.24,44933,9.63,72640.3,-4.67,-34.65,-34.65,0,*5C
1486364561.5,44934,9.63,72640.3,-4.65,-34.65,-34.65,0,*59
1486364562.77,44935,9.63,72642.3,-4.65,-34.65,-34.65,0,*58
1486364564.01,44936,9.63,72640.8,-4.67,-34.71,-34.71,0,*59
1486364565.25,44937,9.63,72644.8,-4.65,-34.71,-34.65,0,*5F
1486364566.52,44938,9.63,72646.3,-4.65,-34.65,-34.65,0,*55
1486364567.75,44939,9.63,72644.8,-4.65,-34.65,-34.59,0,*5B
1486364568.97,44940,9.63,72644.3,-4.65,-34.59,-34.47,0,*55
1486364570.2,44941,9.63,72644.0,-4.65,-34.31,-34.47,0,*5A
1486364571.43,44942,9.63,72644.5,-4.65,-34.31,-34.41,0,*5F
1486364572.63,44943,9.63,72640.3,-4.65,-34.41,-34.41,0,*59
1486364573.85,44944,9.63,72646.3,-4.63,-34.47,-34.41,0,*5E
1486364575.09,44945,9.63,72640.0,-4.63,-34.59,-34.47,0,*56
1486364576.32,44946,9.63,72642.0,-4.63,-34.47,-34.59,0,*55
1486364577.55,44947,9.63,72640.0,-4.63,-34.47,-34.59,0,*54
1486364578.81,44948,9.63,72642.3,-4.61,-34.53,-34.53,0,*56
1486364580.02,44949,9.63,72644.3,-4.61,-34.59,-34.59,0,*57
1486364581.23,44950,9.63,72642.5,-4.61,-34.59,-34.59,0,*5F
1486364582.5,44951,9.63,72644.5,-4.61,-34.53,-34.53,0,*5E
1486364583.72,44952,9.63,72640.8,-4.61,-34.35,-34.25,0,*5C
1486364584.92,44953,9.63,72642.5,-4.61,-34.25,-34.07,0,*5C
1486364586.15,44954,9.63,72644.3,-4.61,-34.35,-34.25,0,*5A
1486364587.39,44955,9.69,72646.5,-4.59,-34.25,-34.35,0,*50
1486364588.62,44956,9.63,72646.5,-4.57,-34.35,-34.47,0,*59
1486364589.85,44957,9.63,72644.8,-4.57,-34.47,-34.35,0,*58
1486364591.1,44958,9.63,72644.3,-4.57,-34.35,-34.35,0,*52
1486364592.35,44959,9.63,72640.3,-4.57,-34.35,-34.31,0,*57
1486364593.59,44960,9.63,72642.5,-4.59,-34.35,-34.25,0,*56
1486364594.82,44961,9.63,72642.0,-4.57,-34.35,-34.47,0,*5D
1486364596.07,44962,9.63,72644.0,-4.57,-34.31,-34.31,0,*5B
1486364597.3,44963,9.63,72646.3,-4.55,-34.13,-34.13,0,*58
1486364598.52,44964,9.63,72646.5,-4.55,-34.13,-33.95,0,*56
1486364599.75,44965,9.63,72644.8,-4.51,-34.07,-34.07,0,*5A
1486364600.98,44966,9.63,72644.0,-4.55,-34.13,-34.13,0,*5D
1486364602.2,44967,9.63,72644.3,-4.51,-33.95,-34.07,0,*54
1486364603.43,44968,9.63,72646.3,-4.51,-34.07,-34.07,0,*57
1486364604.66,44969,9.63,72648.0,-4.51,-34.13,-34.07,0,*53
1486364605.89,44970,9.63,72644.5,-4.51,-34.13,-34.13,0,*5E
1486364607.1,44971,9.63,72646.8,-4.49,-34.13,-34.13,0,*56
1486364608.37,44972,9.63,72646.5,-4.47,-34.19,-34.19,0,*5B
1486364609.57,44973,9.63,72650.3,-4.49,-34.25,-34.13,0,*51
1486364610.81,44974,9.63,72644.0,-4.47,-34.19,-34.07,0,*52
1486364612.04,44975,9.63,72644.0,-4.47,-34.07,-34.07,0,*5C
1486364613.26,44976,9.63,72644.0,-4.47,-34.25,-34.07,0,*5F
1486364614.49,44977,9.69,72646.8,-4.45,-34.35,-34.25,0,*5D
1486364615.68,44978,9.63,72644.5,-4.45,-34.41,-34.41,0,*53
1486364616.94,44979,9.63,72646.8,-4.43,-34.35,-34.47,0,*51
1486364618.17,44980,9.69,72646.5,-4.45,-34.41,-34.53,0,*57
1486364619.38,44981,9.63,72644.5,-4.41,-34.47,-34.59,0,*5E
1486364620.62,44982,9.69,72644.5,-4.45,-34.83,-34.77,0,*5D
1486364621.83,44983,9.69,72644.3,-4.45,-35.01,-35.01,0,*57
1486364623.08,44984,9.63,72646.5,-4.43,-34.89,-35.07,0,*51
1486364624.29,44985,9.63,72642.3,-4.45,-34.71,-34.71,0,*51
1486364625.52,44986,9.63,72642.0,-4.45,-34.77,-34.83,0,*59
1486364626.76,44987,9.69,72646.3,-4.45,-34.95,-35.01,0,*5F
1486364627.96,44988,9.63,72642.3,-4.45,-35.13,-35.17,0,*58
1486364629.17,44989,9.69,72646.8,-4.45,-35.17,-35.29,0,*50
1486364630.45,44990,9.69,72646.0,-4.43,-34.95,-35.07,0,*59
1486364631.68,44991,9.63,72640.5,-4.45,-34.83,-34.77,0,*5F
1486364632.9,44992,9.69,72644.8,-4.45,-34.71,-34.77,0,*51
1486364634.13,44993,9.69,72646.8,-4.45,-35.01,-34.95,0,*5A
1486364635.37,44994,9.63,72644.3,-4.45,-34.95,-35.01,0,*5D
1486364636.58,44995,9.69,72646.8,-4.45,-35.13,-35.01,0,*53
1486364637.79,44996,9.63,72640.5,-4.41,-35.01,-35.01,0,*57
1486364639.0,44997,9.69,72646.8,-4.45,-35.01,-35.17,0,*55
1486364640.2,44998,9.69,72644.3,-4.45,-35.13,-35.17,0,*59
1486364641.4,44999,9.63,72642.5,-4.45,-35.17,-35.17,0,*5C
1486364642.65,45000,9.63,72640.0,-4.45,-35.35,-35.35,0,*54
1486364643.88,45001,9.63,72640.5,-4.45,-35.35,-35.29,0,*58
1486364645.08,45002,9.63,72640.0,-4.45,-35.17,-35.17,0,*56
1486364646.29,45003,9.63,72642.8,-4.45,-35.29,-35.29,0,*57
1486364647.5,45004,9.69,72646.8,-4.45,-35.29,-35.29,0,*50
1486364648.72,45005,9.63,72642.8,-4.45,-35.29,-35.29,0,*51
1486364649.93,45006,9.69,72646.3,-4.45,-35.01,-35.01,0,*52
1486364651.13,45007,9.69,72646.5,-4.45,-35.17,-35.01,0,*54
1486364652.36,45008,9.69,72644.0,-4.45,-35.47,-35.35,0,*59
1486364653.57,45009,9.69,72646.0,-4.45,-35.47,-35.47,0,*5D
1486364654.77,45010,9.63,72640.5,-4.45,-35.29,-35.17,0,*58
1486364655.98,45011,9.69,72644.3,-4.45,-35.17,-35.13,0,*50
1486364657.2,45012,9.69,72644.0,-4.47,-35.29,-35.17,0,*58
1486364658.46,45013,9.69,72646.8,-4.45,-34.95,-34.95,0,*56
1486364659.69,45014,9.69,72646.0,-4.45,-34.77,-34.83,0,*5A
1486364660.95,45015,9.63,72644.5,-4.45,-34.83,-34.83,0,*50
1486364662.16,45016,9.69,72644.5,-4.45,-34.59,-34.59,0,*53
1486364663.39,45017,9.69,72646.8,-4.45,-34.53,-34.71,0,*52
1486364664.65,45018,9.69,72644.8,-4.43,-34.53,-34.47,0,*5E
1486364665.91,45019,9.69,72644.5,-4.45,-34.83,-34.95,0,*5B
1486364667.14,45020,9.69,72646.8,-4.43,-34.77,-34.89,0,*51
1486364668.37,45021,9.69,72646.8,-4.43,-34.71,-34.89,0,*56
1486364669.63,45022,9.69,72644.3,-4.43,-34.77,-34.95,0,*5E
1486364670.91,45023,9.69,72644.8,-4.43,-35.23,-35.23,0,*53
1486364672.16,45024,9.69,72650.0,-4.43,-35.41,-35.47,0,*52
1486364673.4,45025,9.63,72646.3,-4.43,-35.41,-35.59,0,*5C
1486364674.63,45026,9.69,72646.3,-4.45,-35.53,-35.47,0,*55
1486364675.88,45027,9.69,72644.0,-4.43,-35.29,-35.23,0,*5D
1486364677.09,45028,9.69,72646.3,-4.45,-35.29,-35.29,0,*5E
1486364678.34,45029,9.69,72646.8,-4.43,-35.41,-35.47,0,*5F
1486364679.54,45030,9.69,72646.0,-4.41,-35.59,-35.71,0,*59
1486364680.76,45031,9.63,72642.0,-4.41,-35.77,-35.89,0,*53
1486364682.02,45032,9.69,72642.8,-4.43,-35.77,-35.83,0,*58
1486364683.25,45033,9.69,72642.8,-4.45,-35.71,-35.83,0,*59
1486364684.48,45034,9.69,72644.5,-4.43,-35.47,-35.59,0,*5A
1486364685.7,45035,9.69,72646.5,-4.43,-35.47,-35.59,0,*5B
1486364686.93,45036,9.69,72648.0,-4.43,-35.47,-35.59,0,*58
1486364688.17,45037,9.69,72644.8,-4.45,-35.53,-35.65,0,*55
1486364689.39,45038,9.63,72642.5,-4.45,-35.65,-35.71,0,*5A
1486364690.62,45039,9.69,72646.5,-4.45,-35.65,-35.71,0,*5B
1486364691.86,45040,9.69,72648.8,-4.47,-35.65,-35.71,0,*57
1486364693.11,45041,9.69,72644.8,-4.45,-35.53,-35.53,0,*51
1486364694.35,45042,9.69,72646.5,-4.45,-35.53,-35.65,0,*57
1486364695.6,45043,9.69,72646.0,-4.45,-35.53,-35.65,0,*56
1486364696.82,45044,9.69,72646.5,-4.45,-35.53,-35.47,0,*51
1486364698.04,45045,9.69,72644.3,-4.45,-35.65,-35.71,0,*50
1486364699.25,45046,9.69,72642.5,-4.45,-35.29,-35.29,0,*56
1486364700.48,45047,9.69,72640.5,-4.45,-35.47,-35.53,0,*52
1486364701.71,45048,9.69,72640.3,-4.45,-35.35,-35.47,0,*5D
1486364702.94,45049,9.69,72638.0,-4.45,-35.29,-35.35,0,*54
1486364704.19,45050,9.69,72638.5,-4.45,-35.35,-35.35,0,*51
1486364705.41,45051,9.69,72640.8,-4.45,-35.65,-35.71,0,*55
1486364706.64,45052,9.69,72636.8,-4.45,-35.65,-35.71,0,*56
1486364707.86,45053,9.69,72640.5,-4.45,-35.65,-35.71,0,*57
1486364709.08,45054,9.69,72638.3,-4.45,-35.65,-35.71,0,*50
1486364710.33,45055,9.69,72638.8,-4.45,-35.53,-35.35,0,*54
1486364711.58,45056,9.69,72638.5,-4.43,-35.23,-35.29,0,*5B
1486364712.81,45057,9.69,72640.5,-4.45,-35.35,-35.29,0,*5B
1486364714.07,45058,9.69,72642.8,-4.43,-35.41,-35.29,0,*51
1486364715.27,45059,9.69,72646.0,-4.45,-35.17,-35.13,0,*5C
1486364716.48,45060,9.69,72640.5,-4.45,-35.29,-35.29,0,*52
1486364717.73,45061,9.69,72646.0,-4.43,-35.59,-35.65,0,*5A
1486364718.96,45062,9.69,72642.8,-4.43,-35.29,-35.13,0,*5F
1486364720.21,45063,9.69,72644.3,-4.43,-35.41,-35.29,0,*59
1486364721.46,45064,9.69,72642.0,-4.43,-35.41,-35.29,0,*5E
1486364722.71,45065,9.69,72642.0,-4.43,-35.41,-35.29,0,*5F
1486364723.94,45066,9.69,72642.3,-4.41,-35.35,-35.17,0,*50
1486364725.19,45067,9.69,72642.5,-4.41,-35.23,-35.23,0,*51
1486364726.44,45068,9.69,72640.8,-4.41,-35.35,-35.35,0,*5E
1486364727.71,45069,9.69,72642.3,-4.43,-35.41,-35.41,0,*5D
1486364728.96,45070,9.69,72642.8,-4.41,-35.41,-35.41,0,*57
1486364730.23,45071,9.69,72644.8,-4.39,-35.41,-35.23,0,*5D
1486364731.48,45072,9.69,72642.0,-4.41,-35.41,-35.41,0,*55
1486364732.74,45073,9.63,72638.3,-4.39,-35.53,-35.41,0,*58
1486364733.99,45074,9.69,72642.8,-4.41,-35.41,-35.35,0,*50
1486364735.24,45075,9.69,72642.8,-4.41,-35.35,-35.35,0,*52
1486364736.49,45076,9.69,72642.8,-4.41,-35.35,-35.35,0,*51
1486364737.76,45077,9.69,72644.8,-4.39,-35.53,-35.41,0,*5C
1486364739.01,45078,9.69,72646.8,-4.41,-35.41,-35.41,0,*5F
1486364740.28,45079,9.69,72640.5,-4.39,-35.41,-35.41,0,*51
1486364741.53,45080,9.69,72642.8,-4.41,-35.41,-35.41,0,*58
1486364742.77,45081,9.69,72644.0,-4.41,-35.53,-35.53,0,*59
1486364744.0,45082,9.69,72642.0,-4.39,-35.71,-35.59,0,*5F
1486364745.2,45083,9.69,72642.5,-4.41,-35.71,-35.59,0,*51
1486364746.43,45084,9.69,72642.3,-4.41,-35.59,-35.53,0,*56
1486364747.69,45085,9.69,72646.3,-4.39,-35.53,-35.53,0,*52
1486364748.94,45086,9.69,72644.8,-4.39,-35.59,-35.53,0,*5B
1486364750.17,45087,9.69,72644.3,-4.41,-35.59,-35.53,0,*55
1486364751.39,45088,9.69,72646.8,-4.39,-35.59,-35.71,0,*55
1486364752.59,45089,9.69,72646.5,-4.41,-35.59,-35.59,0,*51
1486364753.83,45090,9.69,72644.0,-4.41,-35.95,-36.01,0,*57
1486364755.03,45091,9.69,72646.0,-4.41,-35.89,-35.71,0,*5F
1486364756.28,45092,9.69,72640.5,-4.39,-36.01,-36.13,0,*57
1486364757.5,45093,9.69,72644.8,-4.41,-35.77,-35.89,0,*5B
1486364758.76,45094,9.69,72644.8,-4.39,-35.95,-36.01,0,*5C
1486364759.97,45095,9.69,72642.8,-4.41,-36.01,-36.01,0,*5C
1486364761.19,45096,9.69,72642.5,-4.41,-36.13,-36.19,0,*55
1486364762.41,45097,9.69,72642.3,-4.41,-36.13,-36.19,0,*54
1486364763.67,45098,9.69,72642.5,-4.41,-35.95,-36.13,0,*5C
1486364764.89,45099,9.69,72640.8,-4.41,-35.77,-35.89,0,*51
1486364766.1,45100,9.69,72644.3,-4.41,-35.77,-35.77,0,*51
1486364767.31,45101,9.69,72640.5,-4.41,-35.77,-35.71,0,*56
1486364768.55,45102,9.69,72646.0,-4.39,-35.77,-35.77,0,*5C
1486364769.81,45103,9.69,72644.3,-4.39,-35.95,-36.01,0,*53
1486364771.01,45104,9.69,72640.5,-4.41,-36.31,-36.31,0,*55
1486364772.26,45105,9.69,72646.5,-4.41,-36.13,-36.13,0,*54
1486364773.49,45106,9.69,72642.3,-4.41,-36.01,-36.13,0,*54
1486364774.72,45107,9.69,72646.5,-4.43,-36.19,-36.07,0,*5B
1486364775.94,45108,9.69,72640.3,-4.43,-36.01,-36.07,0,*5D
1486364777.17,45109,9.69,72644.8,-4.43,-36.07,-36.19,0,*55
1486364778.42,45110,9.69,72644.8,-4.43,-36.19,-36.25,0,*5D
1486364779.68,45111,9.69,72642.0,-4.43,-36.25,-36.19,0,*5C
1486364780.91,45112,9.69,72646.3,-4.45,-36.67,-36.61,0,*50
1486364782.16,45113,9.69,72644.3,-4.43,-36.61,-36.73,0,*52
1486364783.39,45114,9.69,72644.3,-4.45,-36.79,-36.97,0,*50
1486364784.59,45115,9.69,72644.0,-4.45,-36.97,-36.97,0,*51
1486364785.82,45116,9.69,72646.3,-4.45,-36.79,-36.97,0,*52
1486364787.02,45117,9.69,72644.3,-4.45,-36.97,-36.85,0,*50
1486364788.27,45118,9.69,72644.3,-4.45,-36.79,-36.79,0,*5C
1486364789.48,45119,9.69,72644.5,-4.49,-36.73,-36.73,0,*51
1486364790.69,45120,9.69,72642.8,-4.49,-36.73,-36.73,0,*5B
1486364791.92,45121,9.69,72640.8,-4.47,-36.67,-36.67,0,*54
1486364793.13,45122,9.69,72640.5,-4.49,-36.73,-36.73,0,*59
1486364794.35,45123,9.69,72642.0,-4.47,-36.73,-36.73,0,*56
1486364795.61,45124,9.69,72640.3,-4.49,-36.91,-36.91,0,*5F
1486364796.84,45125,9.69,72644.3,-4.49,-36.85,-36.91,0,*5B
1486364798.06,45126,9.69,72640.5,-4.51,-36.85,-36.85,0,*54
1486364799.32,45127,9.69,72640.3,-4.51,-36.91,-37.03,0,*5F
1486364800.57,45128,9.69,72642.0,-4.51,-36.91,-36.85,0,*5F
1486364801.84,45129,9.69,72638.3,-4.55,-36.91,-36.91,0,*5F
1486364803.12,45130,9.69,72638.8,-4.55,-36.91,-36.91,0,*57
1486364804.35,45131,9.69,72642.3,-4.51,-36.85,-36.73,0,*5B
1486364805.6,45132,9.69,72640.8,-4.55,-36.97,-36.79,0,*55
1486364806.83,45133,9.69,72640.0,-4.55,-36.73,-36.73,0,*54
1486364808.1,45134,9.69,72642.3,-4.55,-36.79,-36.79,0,*53
1486364809.37,45135,9.69,72636.5,-4.55,-36.91,-36.91,0,*52
1486364810.65,45136,9.69,72640.0,-4.55,-36.91,-36.79,0,*57
1486364811.92,45137,9.69,72642.3,-4.55,-36.79,-36.61,0,*59
1486364813.17,45138,9.69,72642.0,-4.55,-36.73,-36.79,0,*55
1486364814.42,45139,9.69,72642.0,-4.55,-36.79,-36.73,0,*54
1486364815.67,45140,9.69,72642.8,-4.55,-36.61,-36.43,0,*50
1486364816.94,45141,9.69,72640.3,-4.55,-36.37,-36.37,0,*51
1486364818.19,45142,9.69,72640.5,-4.55,-36.55,-36.37,0,*56
1486364819.44,45143,9.69,72642.0,-4.55,-36.55,-36.37,0,*57
1486364820.72,45144,9.75,72646.8,-4.55,-36.37,-36.25,0,*57
1486364821.96,45145,9.69,72640.3,-4.55,-36.55,-36.37,0,*51
1486364823.19,45146,9.69,72642.3,-4.55,-36.55,-36.43,0,*51
1486364824.46,45147,9.69,72642.0,-4.55,-36.37,-36.37,0,*57
1486364825.74,45148,9.69,72642.0,-4.55,-36.37,-36.13,0,*5E
1486364826.99,45149,9.69,72642.8,-4.55,-36.43,-36.25,0,*59
1486364828.22,45150,9.69,72642.8,-4.55,-36.55,-36.43,0,*56
1486364829.47,45151,9.69,72644.3,-4.55,-36.73,-36.61,0,*53
1486364830.7,45152,9.69,72644.8,-4.57,-36.73,-36.61,0,*52
1486364831.93,45153,9.69,72644.3,-4.55,-36.55,-36.43,0,*55
1486364833.18,45154,9.69,72640.8,-4.55,-36.61,-36.43,0,*55
1486364834.44,45155,9.69,72642.3,-4.55,-36.61,-36.43,0,*54
1486364835.66,45156,9.69,72644.8,-4.57,-36.61,-36.43,0,*55
1486364836.87,45157,9.69,72640.5,-4.57,-36.73,-36.43,0,*57
1486364838.08,45158,9.69,72642.0,-4.57,-36.73,-36.55,0,*5F
1486364839.33,45159,9.69,72640.8,-4.57,-36.79,-36.61,0,*53
1486364840.58,45160,9.69,72640.5,-4.57,-36.79,-36.61,0,*59
1486364841.81,45161,9.69,72642.8,-4.57,-36.79,-36.55,0,*5F
1486364843.05,45162,9.69,72642.5,-4.57,-36.79,-36.55,0,*5C
1486364844.28,45163,9.69,72640.0,-4.57,-36.79,-36.55,0,*5D
1486364845.51,45164,9.69,72642.3,-4.59,-36.97,-36.67,0,*55
1486364846.74,45165,9.69,72644.5,-4.57,-37.09,-36.97,0,*53
1486364847.97,45166,9.69,72642.0,-4.57,-36.91,-36.73,0,*5A
1486364849.22,45167,9.69,72642.3,-4.59,-36.97,-36.79,0,*59
1486364850.45,45168,9.75,72640.8,-4.57,-36.91,-36.73,0,*54
1486364851.68,45169,9.69,72640.3,-4.59,-36.97,-36.67,0,*58
1486364852.93,45170,9.75,72644.3,-4.57,-36.79,-36.49,0,*52
1486364854.18,45171,9.69,72640.5,-4.61,-36.61,-36.49,0,*5F
1486364855.41,45172,9.69,72640.3,-4.59,-36.67,-36.43,0,*5B
1486364856.66,45173,9.69,72640.5,-4.59,-36.49,-36.31,0,*53
1486364857.9,45174,9.75,72644.8,-4.57,-36.55,-36.25,0,*52
1486364859.15,45175,9.75,72642.3,-4.57,-36.61,-36.25,0,*54
1486364860.41,45176,9.75,72642.8,-4.59,-36.61,-36.31,0,*5C
1486364861.63,45177,9.75,72642.0,-4.59,-36.43,-36.19,0,*57
1486364862.88,45178,9.69,72642.8,-4.59,-36.49,-36.19,0,*52
1486364864.13,45179,9.69,72642.3,-4.57,-36.37,-36.13,0,*5E
1486364865.36,45180,9.75,72644.5,-4.57,-36.43,-36.13,0,*5B
1486364866.61,45181,9.75,72644.8,-4.59,-36.49,-36.19,0,*54
1486364867.86,45182,9.75,72646.5,-4.59,-36.61,-36.31,0,*57
1486364869.09,45183,9.75,72646.3,-4.57,-36.55,-36.25,0,*5A
1486364870.34,45184,9.69,72642.0,-4.57,-36.79,-36.37,0,*50
1486364871.55,45185,9.69,72642.3,-4.57,-36.73,-36.55,0,*5F
1486364872.78,45186,9.69,72636.5,-4.59,-36.85,-36.67,0,*5A
1486364874.04,45187,9.75,72640.3,-4.59,-36.85,-36.61,0,*5D
1486364875.29,45188,9.75,72642.8,-4.57,-36.61,-36.37,0,*55
1486364876.51,45189,9.69,72640.5,-4.57,-36.55,-36.37,0,*53
1486364877.76,45190,9.75,72640.8,-4.59,-36.61,-36.31,0,*54
1486364878.99,45191,9.75,72644.0,-4.57,-36.55,-36.37,0,*5A
1486364880.22,45192,9.69,72642.5,-4.57,-36.55,-36.25,0,*5A
1486364881.45,45193,9.75,72642.8,-4.57,-36.61,-36.31,0,*59
1486364882.68,45194,9.75,72640.5,-4.59,-36.67,-36.43,0,*53
1486364883.93,45195,9.75,72644.0,-4.59,-36.61,-36.19,0,*5B
1486364885.15,45196,9.75,72640.8,-4.57,-36.73,-36.37,0,*59
1486364886.4,45197,9.75,72640.3,-4.57,-36.79,-36.37,0,*52
1486364887.66,45198,9.75,72642.8,-4.57,-36.61,-36.25,0,*57
1486364888.88,45199,9.75,72640.3,-4.57,-36.79,-36.43,0,*5F
1486364890.13,45200,9.75,72644.8,-4.59,-36.97,-36.61,0,*52
1486364891.36,45201,9.75,72642.0,-4.57,-36.79,-36.43,0,*5D
1486364892.59,45202,9.75,72640.5,-4.57,-36.73,-36.37,0,*57
1486364893.84,45203,9.75,72644.8,-4.59,-36.79,-36.43,0,*51
1486364895.09,45204,9.75,72644.3,-4.59,-36.79,-36.43,0,*56
1486364896.32,45205,9.75,72644.0,-4.57,-36.85,-36.49,0,*50
1486364897.55,45206,9.75,72644.8,-4.59,-36.85,-36.67,0,*51
1486364898.79,45207,9.75,72642.3,-4.59,-37.03,-36.79,0,*50
1486364900.04,45208,9.75,72642.5,-4.59,-37.03,-36.79,0,*5F
1486364901.29,45209,9.75,72642.0,-4.59,-37.15,-36.79,0,*59
1486364902.52,45210,9.75,72644.3,-4.61,-37.21,-36.97,0,*5D
1486364903.78,45211,9.75,72646.0,-4.61,-37.21,-36.79,0,*5C